Location: Unspecified
(0.0000°N, 0.0000°E)
Time: 00:43:52
(UTC+00:00)

Vanguard 1 Rocket - All Passes

Search period start: 21 July 2017 00:00
Search period end: 31 July 2017 00:00
Orbit: 652 x 4225 km, 34.3° (Epoch: 19 July)

Date Brightness Start Highest point End Pass type
(mag) Time Alt. Az. Time Alt. Az. Time Alt. Az.
21 Jul - 02:00:11 10° SW 02:17:24 70° SSE 02:25:49 10° ENE visible
21 Jul - 04:35:16 10° W 04:43:17 25° NW 04:48:27 10° N visible
21 Jul - 12:04:44 10° N 12:10:10 19° NE 12:18:06 10° E daylight
21 Jul - 14:26:26 10° NW 14:36:24 86° NE 14:56:43 10° SE daylight
21 Jul - 16:53:44 10° W 17:08:00 41° SSW 17:30:43 10° SE daylight
21 Jul - 19:29:49 10° SW 19:47:02 23° S 20:05:29 10° SE visible
21 Jul - 22:10:10 10° SW 22:29:11 25° SSE 22:43:11 10° ESE visible
22 Jul - 00:44:45 10° SW 01:04:17 49° SSE 01:14:36 10° E visible
22 Jul - 03:18:51 10° WSW 03:32:23 53° NW 03:39:22 10° NE visible
22 Jul - 13:16:19 10° NW 13:24:23 54° NE 13:40:12 10° ESE daylight
22 Jul - 15:41:12 10° WNW 15:53:07 54° SSW 16:15:09 10° SE daylight
22 Jul - 18:13:05 10° WSW 18:28:52 27° SSW 18:49:13 10° SE visible
22 Jul - 20:52:53 10° SW 21:11:14 22° S 21:27:12 10° SE visible
22 Jul - 23:29:08 10° SW 23:49:48 37° SSE 00:02:16 10° E visible
23 Jul - 02:02:53 10° SW 02:20:43 90° W 02:29:20 10° NE visible
23 Jul - 04:40:15 10° W 04:46:19 17° NW 04:50:43 10° N visible
23 Jul - 12:07:08 10° NNW 12:13:10 27° NE 12:23:01 10° E daylight
23 Jul - 14:29:52 10° WNW 14:39:36 76° SW 14:59:26 10° SE daylight
23 Jul - 16:58:20 10° W 17:12:07 33° SSW 17:33:13 10° SE daylight
23 Jul - 19:35:20 10° SW 19:52:20 22° S 20:10:03 10° SE visible
23 Jul - 22:13:13 10° SW 22:33:51 29° SSE 22:48:26 10° ESE visible
24 Jul - 00:47:08 10° SW 01:07:54 62° SSE 01:18:29 10° ENE visible
24 Jul - 03:22:34 10° WSW 03:35:18 39° NW 03:42:18 10° NNE visible
24 Jul - 13:19:26 10° NW 13:27:22 71° NE 13:43:31 10° ESE daylight
24 Jul - 15:45:17 10° W 15:56:53 43° SSW 16:17:29 10° SE daylight
24 Jul - 18:18:33 10° WSW 18:33:46 24° S 18:52:43 10° SE visible
24 Jul - 20:56:57 10° SW 21:16:23 25° SSE 21:32:46 10° ESE visible
24 Jul - 23:31:29 10° SW 23:53:45 46° SSE 00:06:36 10° E visible
25 Jul - 02:05:51 10° WSW 02:23:49 71° NW 02:32:37 10° NE visible
25 Jul - 04:46:37 10° WNW 04:49:30 12° NW 04:51:58 10° NNW visible
25 Jul - 12:09:50 10° NNW 12:16:07 37° NE 12:27:16 10° ESE daylight
25 Jul - 14:33:32 10° WNW 14:43:03 59° SSW 15:01:57 10° SE daylight
25 Jul - 17:03:18 10° WSW 17:16:32 28° SSW 17:35:55 10° SE daylight
25 Jul - 19:40:24 10° SW 19:57:43 22° S 20:15:15 10° SE visible
25 Jul - 22:15:56 10° SW 22:38:12 35° SSE 22:53:21 10° E visible
26 Jul - 00:49:39 10° SW 01:11:16 78° SE 01:22:06 10° ENE visible
26 Jul - 03:26:47 10° W 03:38:13 29° NW 03:45:02 10° NNE visible
26 Jul - 11:01:38 10° N 11:05:16 15° NE 11:10:02 10° ENE daylight
26 Jul - 13:22:46 10° NW 13:30:31 88° SW 13:46:30 10° SE daylight
26 Jul - 15:49:42 10° W 16:00:55 34° SSW 16:19:49 10° SE daylight
26 Jul - 18:24:03 10° SW 18:38:57 22° S 18:56:52 10° SE visible
26 Jul - 21:00:24 10° SW 21:21:14 28° SSE 21:38:14 10° ESE visible
26 Jul - 23:33:52 10° SW 23:57:26 57° SSE 00:10:37 10° ENE visible
27 Jul - 02:09:10 10° WSW 02:26:44 55° NW 02:35:43 10° NE visible
27 Jul - 12:12:46 10° NW 12:19:05 53° NE 12:31:00 10° ESE daylight
27 Jul - 14:37:29 10° W 14:46:45 45° SSW 15:04:18 10° SE daylight
27 Jul - 17:08:35 10° WSW 17:21:16 23° S 17:38:57 10° SE daylight
27 Jul - 19:44:51 10° SW 20:03:00 23° S 20:20:53 10° ESE visible
27 Jul - 22:18:29 10° SW 22:42:14 43° SSE 22:57:54 10° E visible
28 Jul - 00:52:22 10° SW 01:14:24 85° NW 01:25:29 10° NE visible
28 Jul - 03:31:39 10° W 03:41:14 21° NW 03:47:30 10° N visible
28 Jul - 11:03:46 10° N 11:08:20 23° NE 11:15:07 10° E daylight
28 Jul - 13:26:18 10° WNW 13:33:53 66° SSW 13:49:13 10° SE daylight
28 Jul - 15:54:30 10° WSW 16:05:13 27° SSW 16:22:12 10° SE daylight
28 Jul - 18:29:18 10° SW 18:44:17 21° S 19:01:46 10° SE visible
28 Jul - 21:03:27 10° SW 21:25:43 33° SSE 21:43:25 10° E visible
28 Jul - 23:36:19 10° SW 00:00:50 70° SE 00:14:22 10° ENE visible
29 Jul - 02:12:52 10° WSW 02:29:36 42° NW 02:38:39 10° NNE visible
29 Jul - 12:15:57 10° NW 12:22:11 75° NE 12:34:20 10° ESE daylight
29 Jul - 14:41:45 10° W 14:50:42 35° SSW 15:06:34 10° SE daylight
29 Jul - 17:14:05 10° SW 17:26:15 20° S 17:42:32 10° SE daylight
29 Jul - 19:48:39 10° SSW 20:08:00 26° SSE 20:26:37 10° ESE visible
29 Jul - 22:20:57 10° SW 22:45:57 52° SSE 23:02:05 10° ENE visible
30 Jul - 00:55:21 10° WSW 01:17:21 69° NW 01:28:41 10° NE visible
30 Jul - 03:37:24 10° WNW 03:44:25 16° NW 03:49:35 10° N visible
30 Jul - 11:06:24 10° NNW 11:11:22 34° NE 11:19:24 10° ESE daylight
30 Jul - 13:30:07 10° WNW 13:37:31 48° SSW 13:51:43 10° SE daylight
30 Jul - 15:59:41 10° WSW 16:09:45 22° S 16:24:47 10° SSE daylight
30 Jul - 18:34:01 10° SW 18:49:35 21° S 19:07:20 10° SE visible
30 Jul - 21:06:12 10° SW 21:29:50 39° SSE 21:48:14 10° E visible
